Wind_Speed
4 5 7 9 9 10 12 13 12 12 13 14 14 18 19 22 21 29 36 31 29 30 28 23 22 19 18 17 14 11 9 8 9 13 11 8 7 9 11 14 18 19 21
7 8 10 13 13 14 17 18 18 18 20 21 23 23 29 30 28 27 34 32 31 28 24 21 23 18 16 16 14 12 10 9 8 8 6 6 8 11 13 16 20 23 24
11 12 15 18 20 23 24 25 28 32 36 39 39 38 36 32 32 29 27 27 27 27 26 25 24 19 17 16 12 9 8 6 4 2 1 4 9 14 18 19 22 26 28
17 21 26 30 33 36 38 39 40 39 38 36 37 38 37 34 30 30 30 29 27 27 24 22 21 18 16 13 11 9 7 6 6 5 6 9 12 16 20 24 24 28 32
26 31 36 38 39 39 39 40 39 40 40 37 37 37 36 34 31 28 27 27 24 23 22 19 18 17 16 13 11 10 8 8 7 7 10 14 16 19 23 26 31 33 35
31 33 33 34 35 36 37 38 37 36 38 38 36 34 33 31 27 25 23 23 21 19 18 17 16 14 12 10 9 9 10 11 10 12 13 15 17 21 25 28 30 30 29
33 35 34 33 34 35 35 34 34 33 32 31 31 29 29 27 23 21 19 18 17 16 15 14 12 10 9 8 7 8 8 8 10 11 14 17 19 22 26 29 28 31 33
28 29 29 30 31 30 30 29 29 28 26 26 26 25 24 23 20 18 15 14 13 11 10 9 8 8 7 8 8 8 10 11 13 15 17 19 22 23 25 27 31 35 37
24 25 25 25 25 25 25 25 24 22 22 22 21 20 18 18 15 13 10 9 9 8 7 6 6 7 8 9 10 10 12 13 16 18 20 21 22 23 26 29 31 32 38
21 22 22 22 22 21 21 21 20 18 17 16 16 15 14 13 11 9 8 7 6 5 7 7 8 8 9 10 12 14 17 19 20 22 23 24 25 25 25 25 27 30 32
19 19 19 18 17 16 16 16 15 14 13 13 12 12 10 9 7 6 4 5 5 6 6 7 8 10 12 13 15 17 19 21 23 26 27 28 28 29 29 28 28 30 33
16 15 15 14 14 14 12 12 12 10 9 9 8 7 7 6 5 4 3 3 3 5 7 8 9 12 14 15 18 20 22 24 26 28 29 30 31 31 31 31 30 32 32
13 12 11 11 10 9 8 7 7 6 6 5 4 3 2 2 1 2 3 4 6 9 11 13 15 16 17 19 20 22 24 26 28 30 32 32 33 33 34 34 32 34 36
13 12 11 10 9 8 7 6 5 4 4 3 3 2 1 2 3 5 7 8 8 10 12 15 16 18 19 21 22 23 25 27 30 32 33 34 34 34 36 36 37 38 42
12 11 10 9 9 9 9 8 8 8 7 6 5 5 4 5 6 7 8 9 10 11 14 17 19 21 22 23 24 26 27 29 31 33 35 36 36 37 37 36 38 40 43
14 14 14 14 14 12 12 11 10 9 8 9 9 9 10 10 11 11 11 11 12 15 18 21 23 25 27 28 29 29 30 31 33 35 37 37 38 38 39 39 39 41 46
18 18 17 16 16 16 15 14 14 14 14 14 14 16 17 17 16 16 15 15 15 17 20 23 26 28 29 31 32 32 33 32 34 36 38 38 38 40 40 41 42 44 48
20 20 20 21 20 19 19 19 20 20 19 19 19 21 21 21 22 22 20 20 20 19 22 25 28 30 31 32 33 34 34 35 36 38 39 39 39 41 42 43 44 47 50
24 24 23 23 23 24 25 25 25 25 25 25 24 25 24 24 26 25 23 25 24 25 24 27 30 33 34 35 35 36 37 37 38 40 40 40 40 41 43 44 47 49 50
29 28 28 29 29 30 30 29 30 30 30 30 30 28 27 28 31 29 28 28 29 30 28 29 33 35 37 37 37 38 38 39 40 42 43 42 42 42 45 46 49 51 49
32 33 33 34 34 33 33 34 33 34 34 35 35 31 30 33 35 34 33 33 33 33 33 33 36 38 38 38 39 39 39 40 41 43 43 43 43 45 45 48 50 48 50
36 36 37 38 37 37 38 37 37 38 39 40 38 37 34 37 39 39 39 38 36 36 35 36 37 41 40 39 39 39 40 41 42 43 43 43 44 45 47 48 47 49 49
38 39 39 40 40 41 41 41 42 42 43 43 43 42 41 41 42 43 43 41 40 39 39 38 40 41 41 41 39 39 40 41 42 42 42 44 45 46 46 46 48 49 49
40 41 41 41 42 42 44 45 45 46 46 46 46 46 45 45 45 45 44 42 41 42 40 39 42 40 40 40 39 38 39 41 41 41 41 44 47 46 44 47 48 48 50
41 42 43 43 44 44 45 46 47 48 49 49 48 47 47 46 46 44 42 40 41 39 39 38 41 39 39 39 37 37 39 39 38 39 41 43 45 44 45 47 48 50 53
36 38 41 43 44 45 46 47 48 48 47 46 46 45 43 42 41 39 37 36 35 36 35 36 37 36 36 36 35 37 38 37 37 38 41 43 44 46 47 48 50 52 53
Wind_Direction
75 118 140 143 152 160 165 165 164 159 154 149 163 158 159 153 157 147 137 143 142 134 133 133 129 129 131 136 145 158 175 194 201 193 195 215 250 273 284 291 294 297 302
86 112 131 129 134 140 141 140 137 142 141 137 135 136 128 123 122 121 113 115 118 115 105 108 100 98 105 106 109 122 130 133 151 165 190 234 272 287 295 304 307 309 310
101 114 117 119 124 122 121 122 124 124 123 123 121 121 117 117 114 104 97 100 97 99 108 112 111 108 105 102 102 106 102 106 119 134 199 297 310 312 313 311 311 310 311
112 118 118 117 116 115 115 115 114 111 109 107 106 105 105 103 106 108 113 113 114 113 110 105 106 106 101 103 98 92 84 70 48 21 355 335 324 317 318 316 313 313 312
117 118 118 119 119 119 117 112 110 108 106 105 107 108 109 109 107 111 108 108 106 106 103 100 98 96 90 80 73 62 54 44 23 359 347 336 325 322 321 322 323 322 321
114 113 112 110 109 110 110 110 109 111 114 114 110 109 109 106 105 104 105 102 101 97 95 91 84 75 71 61 50 37 26 20 6 355 338 328 325 327 328 327 326 322 327
114 113 114 116 115 114 113 113 113 112 112 109 108 107 101 98 96 92 88 89 90 89 86 81 74 66 55 43 30 18 7 356 351 340 330 331 332 332 329 326 319 316 310
116 114 116 118 116 113 112 110 110 110 108 105 105 102 101 98 96 92 88 86 81 78 71 64 55 46 31 14 8 1 354 353 348 343 336 335 335 330 322 315 314 313 312
120 118 117 116 114 113 111 110 109 108 104 103 100 98 96 95 92 93 92 87 77 67 58 46 28 12 357 356 351 346 342 341 342 342 339 333 330 329 323 315 319 312 316
124 124 122 120 119 118 114 108 105 106 106 105 104 103 103 102 96 85 73 63 53 40 25 13 0 351 339 344 346 340 340 337 339 336 334 333 328 325 321 315 315 315 320
131 130 129 125 121 116 118 118 116 114 111 109 103 98 93 87 93 81 57 37 24 12 358 345 337 338 344 346 342 337 332 334 332 330 330 328 328 328 326 323 318 312 311
142 140 138 134 134 132 131 128 126 120 114 105 96 86 77 67 55 44 27 8 345 342 341 336 334 340 342 339 336 333 336 333 329 328 327 327 325 325 322 319 313 305 305
156 156 155 153 150 144 140 140 136 131 128 126 119 109 109 108 77 17 7 353 349 347 346 343 342 337 334 332 330 329 328 327 327 326 325 324 321 320 319 315 310 307 307
177 177 176 174 174 176 178 182 181 181 186 192 198 215 258 305 333 346 342 341 344 338 336 335 331 329 328 325 324 323 324 324 324 324 322 320 319 321 320 317 314 315 312
194 197 201 204 207 212 216 220 224 226 230 236 246 258 272 292 300 297 303 313 324 335 334 333 332 330 329 326 324 322 320 321 324 325 324 321 320 319 318 316 314 314 313
209 214 218 219 221 225 231 235 239 247 254 259 267 274 280 280 275 276 279 298 317 324 329 329 330 330 329 326 324 323 322 321 323 324 322 319 317 316 315 315 314 314 314
217 220 225 230 233 235 240 246 253 258 266 270 271 270 269 272 275 277 283 288 299 310 319 323 325 326 325 323 320 318 318 318 317 319 319 318 316 315 314 315 316 316 316
231 234 238 240 242 246 250 253 256 259 262 262 263 266 268 271 271 273 278 285 295 300 311 316 319 319 318 318 317 315 314 315 315 317 318 317 315 313 314 314 316 316 317
237 240 245 249 252 253 255 256 258 260 263 265 264 265 269 269 270 274 275 282 291 293 302 312 315 316 315 315 314 313 312 314 314 316 317 315 315 314 314 315 316 317 317
241 243 245 247 248 250 253 257 260 263 265 267 268 271 271 272 273 279 279 281 285 291 295 300 310 312 313 313 312 311 311 312 313 315 316 314 315 314 313 315 317 315 314
247 248 249 250 252 255 258 260 263 265 267 269 272 273 273 273 276 278 281 283 286 290 292 293 300 309 311 310 310 309 308 310 312 315 314 313 314 313 314 315 315 313 313
253 254 254 256 257 258 261 263 265 268 270 272 275 277 275 273 278 281 283 284 287 288 289 292 292 300 308 308 308 307 307 309 312 313 312 313 312 313 315 314 312 313 315
253 255 257 259 261 263 265 266 268 270 273 276 278 280 280 280 280 281 284 287 288 287 287 287 292 294 301 305 305 305 305 309 311 311 310 310 311 312 313 312 313 315 316
256 258 260 261 263 265 267 269 271 272 275 277 279 281 282 284 285 285 285 285 285 284 282 282 289 293 295 302 303 304 306 309 310 310 310 310 310 312 312 315 316 316 315
257 260 263 265 267 268 270 271 273 275 276 279 281 283 285 286 286 287 287 288 286 283 281 282 288 292 294 300 302 304 306 309 308 308 308 308 309 311 315 316 320 321 318
259 260 263 265 267 269 271 273 276 278 280 282 284 285 287 288 288 288 288 285 285 284 282 283 285 287 295 299 303 305 308 309 308 311 314 313 314 318 318 315 314 310 306
Height
1411 1409 1408 1407 1407 1407 1408 1407 1408 1409 1410 1412 1414 1415 1416 1417 1419 1423 1419 1421 1428 1432 1436 1441 1440 1445 1448 1450 1454 1457 1459 1462 1465 1467 1470 1473 1473 1474 1471 1471 1472 1470 1466
1413 1411 1410 1409 1409 1410 1409 1408 1410 1411 1413 1414 1417 1419 1419 1425 1428 1429 1419 1428 1431 1437 1442 1446 1445 1450 1452 1454 1459 1463 1465 1466 1468 1470 1470 1470 1471 1472 1468 1464 1464 1460 1459
1416 1415 1414 1414 1414 1413 1413 1414 1415 1417 1418 1419 1421 1422 1422 1429 1431 1434 1434 1440 1443 1444 1449 1448 1451 1453 1457 1457 1461 1466 1467 1470 1470 1470 1467 1467 1465 1466 1464 1459 1457 1454 1451
1421 1419 1419 1419 1420 1420 1421 1422 1423 1426 1426 1428 1428 1427 1431 1436 1440 1438 1443 1443 1448 1450 1450 1457 1456 1456 1457 1464 1466 1468 1470 1468 1466 1467 1464 1462 1461 1461 1458 1455 1451 1446 1444
1427 1426 1426 1426 1426 1427 1428 1428 1429 1430 1433 1437 1438 1438 1440 1442 1446 1451 1452 1452 1452 1455 1453 1457 1460 1464 1463 1464 1465 1467 1468 1463 1465 1464 1460 1459 1460 1456 1452 1447 1443 1438 1434
1436 1435 1436 1437 1438 1437 1436 1436 1438 1441 1441 1442 1444 1446 1449 1451 1454 1455 1457 1455 1459 1461 1463 1464 1464 1464 1463 1464 1464 1467 1465 1462 1461 1457 1460 1460 1458 1450 1446 1442 1434 1433 1422
1444 1444 1445 1446 1446 1446 1445 1446 1447 1449 1451 1452 1452 1455 1454 1455 1459 1458 1459 1461 1463 1464 1465 1466 1466 1466 1466 1467 1467 1466 1464 1463 1460 1460 1459 1456 1452 1447 1441 1436 1431 1425 1420
1452 1452 1453 1453 1452 1453 1454 1455 1456 1457 1457 1457 1459 1460 1461 1461 1464 1464 1466 1467 1467 1469 1468 1469 1468 1467 1467 1465 1464 1463 1462 1459 1457 1456 1454 1451 1445 1439 1434 1430 1424 1418 1412
1457 1458 1459 1460 1459 1460 1460 1460 1461 1463 1463 1464 1465 1466 1466 1466 1467 1469 1471 1472 1470 1470 1470 1469 1468 1467 1466 1464 1464 1462 1458 1456 1453 1451 1448 1445 1440 1433 1430 1423 1416 1413 1404
1463 1463 1464 1464 1465 1466 1465 1465 1466 1467 1468 1469 1469 1469 1470 1470 1471 1471 1471 1470 1470 1470 1468 1466 1466 1466 1464 1462 1460 1458 1454 1449 1447 1445 1441 1437 1432 1429 1425 1420 1413 1406 1400
1467 1468 1469 1469 1469 1469 1470 1471 1471 1471 1472 1472 1472 1471 1471 1471 1472 1471 1472 1471 1470 1469 1469 1467 1466 1464 1461 1459 1455 1452 1449 1445 1442 1438 1434 1430 1426 1421 1416 1411 1407 1402 1398
1470 1470 1471 1472 1472 1472 1473 1473 1473 1473 1473 1473 1473 1473 1472 1473 1472 1473 1472 1471 1470 1469 1467 1466 1464 1461 1458 1454 1450 1447 1443 1439 1435 1431 1427 1424 1419 1415 1410 1405 1402 1397 1394
1471 1472 1473 1473 1473 1473 1473 1474 1474 1474 1474 1474 1475 1475 1475 1475 1474 1473 1471 1469 1467 1465 1463 1461 1459 1456 1453 1450 1447 1443 1439 1435 1430 1426 1422 1417 1412 1408 1403 1398 1395 1389 1384
1471 1473 1473 1474 1474 1474 1474 1474 1474 1474 1474 1474 1474 1474 1473 1472 1470 1469 1467 1466 1465 1463 1461 1459 1456 1453 1450 1446 1442 1439 1435 1431 1426 1421 1416 1410 1404 1399 1395 1390 1383 1378 1371
1471 1472 1473 1473 1473 1473 1474 1474 1474 1474 1474 1473 1472 1471 1470 1469 1468 1467 1466 1464 1461 1460 1457 1454 1451 1447 1444 1440 1436 1433 1429 1425 1419 1414 1407 1401 1396 1391 1387 1382 1376 1369 1363
1468 1470 1471 1472 1473 1473 1473 1473 1472 1471 1471 1470 1469 1468 1467 1466 1466 1464 1462 1460 1457 1454 1451 1448 1445 1441 1437 1433 1429 1425 1421 1416 1411 1406 1401 1394 1389 1383 1378 1374 1368 1361 1352
1463 1465 1466 1466 1467 1468 1468 1468 1468 1467 1466 1465 1465 1464 1463 1463 1461 1459 1457 1455 1452 1449 1446 1442 1438 1435 1431 1427 1423 1419 1414 1410 1405 1400 1394 1388 1381 1375 1369 1363 1357 1350 1342
1461 1462 1463 1464 1464 1464 1464 1463 1463 1462 1462 1461 1461 1460 1459 1457 1456 1454 1452 1449 1446 1443 1440 1436 1433 1429 1425 1421 1416 1411 1407 1402 1397 1392 1385 1379 1373 1365 1358 1352 1346 1338 1331
1457 1458 1459 1460 1460 1461 1460 1459 1458 1457 1457 1456 1455 1454 1453 1451 1449 1448 1445 1442 1439 1436 1433 1430 1427 1422 1418 1413 1408 1403 1398 1393 1388 1383 1377 1370 1364 1356 1348 1342 1334 1328 1319
1449 1450 1451 1451 1451 1451 1452 1452 1452 1451 1450 1448 1447 1447 1446 1444 1441 1440 1438 1434 1431 1428 1426 1423 1420 1415 1410 1405 1400 1395 1389 1384 1378 1373 1366 1359 1353 1346 1337 1331 1324 1314 1307
1444 1445 1445 1445 1445 1445 1446 1445 1445 1444 1442 1440 1438 1439 1439 1435 1432 1430 1428 1425 1422 1419 1417 1414 1411 1407 1403 1397 1391 1386 1380 1375 1369 1362 1355 1348 1342 1334 1328 1320 1311 1304 1296
1436 1438 1438 1439 1439 1438 1438 1438 1437 1435 1432 1430 1429 1429 1430 1426 1423 1420 1418 1416 1414 1411 1408 1405 1401 1397 1393 1388 1382 1376 1370 1364 1359 1352 1344 1337 1330 1323 1316 1309 1300 1293 1285
1427 1428 1429 1429 1430 1430 1429 1428 1426 1424 1423 1421 1420 1419 1418 1416 1413 1410 1407 1406 1404 1401 1398 1393 1389 1385 1382 1377 1372 1366 1359 1354 1348 1341 1333 1327 1320 1313 1306 1297 1290 1282 1275
1419 1418 1418 1418 1419 1419 1419 1418 1416 1414 1412 1410 1409 1408 1407 1405 1402 1399 1396 1394 1391 1388 1385 1381 1377 1374 1371 1367 1361 1355 1349 1344 1337 1331 1324 1316 1308 1302 1294 1286 1279 1272 1264
1409 1409 1409 1409 1409 1408 1407 1406 1404 1403 1401 1399 1398 1396 1395 1393 1390 1387 1385 1382 1378 1375 1373 1369 1366 1363 1359 1355 1350 1345 1340 1334 1328 1321 1314 1306 1298 1291 1284 1275 1266 1258 1250
1398 1398 1398 1398 1397 1397 1395 1393 1392 1391 1390 1388 1386 1384 1382 1379 1376 1373 1371 1368 1365 1363 1360 1358 1355 1352 1349 1345 1340 1335 1329 1323 1317 1312 1303 1294 1285 1277 1271 1264 1257 1249 1240